• In Hungary
  • List of Countries
  • For 7 days
  • Water Temperature
  • Satellite Maps
  • Weather Map
  • News
  • Weather Widgets
  • user-avatar
    Login

    Hourly Weather Gremyachinsk

    Today, 23 October, Monday

    Time Temperature Precipitation Wind Pressure Humidity
    00:00 +2°C° 0 mm 2 mps 720 mmHg 79%
    01:00 +2°C° 0 mm 2 mps 720 mmHg 79%
    02:00 +2°C° 0 mm 2 mps 720 mmHg 79%
    03:00 +2°C° 0 mm 2 mps 719 mmHg 79%
    04:00 +2°C° 0 mm 2 mps 719 mmHg 79%
    05:00 +2°C° 0 mm 2 mps 719 mmHg 79%
    06:00 +3°C° 0 mm 1 mps 719 mmHg 78%
    07:00 +3°C° 0 mm 1 mps 719 mmHg 78%
    08:00 +5°C° 0 mm 1 mps 719 mmHg 72%
    09:00 +7°C° 0 mm 1 mps 719 mmHg 65%
    10:00 +8°C° 0 mm 2 mps 719 mmHg 59%
    11:00 +9°C° 0 mm 2 mps 719 mmHg 58%
    12:00 +10°C° 0 mm 2 mps 718 mmHg 56%
    13:00 +10°C° 0 mm 3 mps 718 mmHg 55%
    14:00 +9°C° 0 mm 3 mps 719 mmHg 61%
    15:00 +8°C° 0 mm 3 mps 719 mmHg 66%
    16:00 +7°C° 0 mm 3 mps 719 mmHg 72%
    17:00 +5°C° 0 mm 3 mps 720 mmHg 76%
    18:00 +4°C° 0 mm 3 mps 721 mmHg 79%
    19:00 +3°C° 0 mm 3 mps 722 mmHg 83%
    20:00 +3°C° 0 mm 3 mps 723 mmHg 86%
    21:00 +3°C° 0 mm 3 mps 724 mmHg 89%
    22:00 +3°C° 0 mm 3 mps 724 mmHg 93%
    23:00 +3°C° 0 mm 3 mps 725 mmHg 88%

    Tomorrow, 24 October, Tuesday

    Time Temperature Precipitation Wind Pressure Humidity
    00:00 +2°C° 0 mm 3 mps 726 mmHg 84%
    01:00 +2°C° 0 mm 3 mps 726 mmHg 80%
    02:00 +2°C° 0 mm 3 mps 727 mmHg 80%
    03:00 +1°C° 0 mm 3 mps 727 mmHg 80%
    04:00 0°C° 0 mm 3 mps 727 mmHg 80%
    05:00 +1°C° 0 mm 2 mps 727 mmHg 81%
    06:00 -1°C° 0 mm 2 mps 728 mmHg 82%
    07:00 -1°C° 0 mm 2 mps 728 mmHg 82%
    08:00 +1°C° 0 mm 2 mps 728 mmHg 74%
    09:00 +3°C° 0 mm 2 mps 728 mmHg 65%
    10:00 +4°C° 0 mm 2 mps 728 mmHg 56%
    11:00 +5°C° 0 mm 2 mps 728 mmHg 54%
    12:00 +5°C° 0 mm 2 mps 727 mmHg 52%
    13:00 +7°C° 0 mm 1 mps 727 mmHg 50%
    14:00 +6°C° 0 mm 1 mps 727 mmHg 54%
    15:00 +5°C° 0 mm 1 mps 726 mmHg 59%
    16:00 +4°C° 0 mm 1 mps 726 mmHg 63%
    17:00 +3°C° 0 mm 1 mps 726 mmHg 66%
    18:00 +2°C° 0 mm 1 mps 726 mmHg 69%
    19:00 +1°C° 0 mm 1 mps 726 mmHg 71%
    20:00 +1°C° 0 mm 1 mps 725 mmHg 72%
    21:00 +2°C° 0 mm 1 mps 725 mmHg 73%
    22:00 +1°C° 0 mm 2 mps 725 mmHg 74%
    23:00 +1°C° 0 mm 2 mps 724 mmHg 75%

    Day after tomorrow, 25 October, Wednesday

    Time Temperature Precipitation Wind Pressure Humidity
    00:00 +1°C° 0 mm 2 mps 724 mmHg 76%
    01:00 +1°C° 0 mm 2 mps 723 mmHg 78%
    02:00 +1°C° 0 mm 2 mps 723 mmHg 79%
    03:00 -1°C° 0 mm 2 mps 722 mmHg 80%
    04:00 -1°C° 0 mm 2 mps 722 mmHg 81%
    05:00 +2°C° 0 mm 1 mps 722 mmHg 81%
    06:00 +2°C° 0 mm 1 mps 722 mmHg 82%
    07:00 +2°C° 0 mm 1 mps 722 mmHg 83%
    08:00 +4°C° 0 mm 1 mps 721 mmHg 76%
    09:00 +6°C° 0 mm 1 mps 721 mmHg 69%
    10:00 +8°C° 0 mm 1 mps 721 mmHg 63%
    11:00 +9°C° 0 mm 1 mps 721 mmHg 61%
    12:00 +10°C° 0 mm 1 mps 720 mmHg 59%
    13:00 +11°C° 0 mm 1 mps 720 mmHg 57%
    14:00 +9°C° 0 mm 1 mps 720 mmHg 63%
    15:00 +8°C° 0 mm 1 mps 720 mmHg 69%
    16:00 +5°C° 0 mm 0 mps 719 mmHg 75%
    17:00 +5°C° 0 mm 1 mps 719 mmHg 77%
    18:00 +5°C° 0 mm 1 mps 720 mmHg 79%
    19:00 +4°C° 0 mm 1 mps 720 mmHg 80%
    20:00 +4°C° 0 mm 1 mps 720 mmHg 80%
    21:00 +4°C° 0 mm 1 mps 719 mmHg 80%
    22:00 +3°C° 0 mm 1 mps 719 mmHg 80%
    23:00 +3°C° 0 mm 1 mps 719 mmHg 80%

    26 October, Thursday

    Time Temperature Precipitation Wind Pressure Humidity
    00:00 +2°C° 0 mm 2 mps 718 mmHg 81%
    01:00 +2°C° 0 mm 2 mps 718 mmHg 81%
    02:00 +2°C° 0 mm 2 mps 717 mmHg 81%
    03:00 +2°C° 0 mm 2 mps 716 mmHg 82%
    04:00 +2°C° 0 mm 2 mps 716 mmHg 82%
    05:00 +2°C° 0 mm 2 mps 716 mmHg 82%
    06:00 +2°C° 0 mm 2 mps 716 mmHg 82%
    07:00 +2°C° 0 mm 2 mps 715 mmHg 82%
    08:00 +4°C° 0 mm 2 mps 715 mmHg 77%
    09:00 +4°C° 0 mm 3 mps 715 mmHg 71%
    10:00 +6°C° 0 mm 4 mps 715 mmHg 66%
    11:00 +6°C° 0 mm 5 mps 715 mmHg 68%
    12:00 +6°C° 0 mm 5 mps 715 mmHg 69%
    13:00 +5°C° 0 mm 6 mps 715 mmHg 71%
    14:00 +5°C° 0.1 mm 5 mps 716 mmHg 75%
    15:00 +2°C° 0.1 mm 5 mps 716 mmHg 80%
    16:00 +1°C° 0.1 mm 5 mps 716 mmHg 84%
    17:00 +1°C° 0.1 mm 5 mps 717 mmHg 82%
    18:00 0°C° 0.1 mm 5 mps 718 mmHg 81%
    19:00 -1°C° 0.1 mm 5 mps 718 mmHg 79%
    20:00 -1°C° 0.1 mm 5 mps 719 mmHg 77%
    21:00 -2°C° 0.1 mm 5 mps 719 mmHg 75%
    22:00 -3°C° 0.1 mm 6 mps 720 mmHg 73%
    23:00 -3°C° 0 mm 6 mps 720 mmHg 71%

    27 October, Friday

    Time Temperature Precipitation Wind Pressure Humidity
    00:00 -3°C° 0 mm 6 mps 720 mmHg 69%
    01:00 -4°C° 0 mm 6 mps 721 mmHg 67%
    02:00 -4°C° 0 mm 6 mps 721 mmHg 68%
    03:00 -4°C° 0 mm 6 mps 721 mmHg 69%
    04:00 -4°C° 0 mm 6 mps 722 mmHg 70%
    05:00 -4°C° 0.1 mm 7 mps 722 mmHg 71%
    06:00 -4°C° 0.1 mm 7 mps 722 mmHg 71%
    07:00 -4°C° 0.1 mm 7 mps 722 mmHg 72%
    08:00 -5°C° 0.2 mm 8 mps 722 mmHg 71%
    09:00 -5°C° 0.2 mm 8 mps 722 mmHg 70%
    10:00 -4°C° 0.2 mm 9 mps 723 mmHg 69%
    11:00 -5°C° 0.1 mm 9 mps 723 mmHg 65%
    12:00 -5°C° 0.1 mm 9 mps 724 mmHg 61%
    13:00 -6°C° 0.1 mm 8 mps 724 mmHg 57%
    14:00 -6°C° 0.1 mm 8 mps 725 mmHg 60%
    15:00 -6°C° 0.1 mm 8 mps 725 mmHg 63%
    16:00 -6°C° 0.1 mm 8 mps 726 mmHg 66%
    17:00 -6°C° 0.1 mm 8 mps 727 mmHg 66%
    18:00 -6°C° 0.1 mm 7 mps 727 mmHg 67%
    19:00 -6°C° 0.1 mm 6 mps 728 mmHg 68%
    20:00 -5°C° 0.1 mm 6 mps 728 mmHg 71%
    21:00 -5°C° 0.1 mm 6 mps 728 mmHg 75%
    22:00 -5°C° 0.1 mm 5 mps 729 mmHg 79%
    23:00 -5°C° 0.1 mm 6 mps 729 mmHg 80%

    28 October, Saturday

    Time Temperature Precipitation Wind Pressure Humidity
    00:00 -5°C° 0.1 mm 6 mps 729 mmHg 81%
    01:00 -5°C° 0.1 mm 6 mps 729 mmHg 82%
    02:00 -4°C° 0.2 mm 6 mps 729 mmHg 82%
    03:00 -4°C° 0.2 mm 6 mps 729 mmHg 83%
    04:00 -4°C° 0.2 mm 7 mps 729 mmHg 83%
    05:00 -4°C° 0.1 mm 6 mps 730 mmHg 82%
    06:00 -4°C° 0.1 mm 6 mps 730 mmHg 80%
    07:00 -5°C° 0.1 mm 6 mps 730 mmHg 78%
    08:00 -4°C° 0.1 mm 6 mps 730 mmHg 76%
    09:00 -3°C° 0.1 mm 6 mps 731 mmHg 74%
    10:00 -3°C° 0.1 mm 6 mps 731 mmHg 72%
    11:00 -2°C° 0.1 mm 6 mps 731 mmHg 72%
    12:00 -2°C° 0.1 mm 6 mps 730 mmHg 72%
    13:00 -1°C° 0.1 mm 6 mps 730 mmHg 72%
    14:00 -2°C° 0.1 mm 6 mps 730 mmHg 74%
    15:00 -1°C° 0.1 mm 5 mps 730 mmHg 76%
    16:00 -1°C° 0.1 mm 5 mps 730 mmHg 78%
    17:00 -2°C° 0 mm 5 mps 730 mmHg 81%
    18:00 -2°C° 0 mm 4 mps 730 mmHg 83%
    19:00 -3°C° 0 mm 4 mps 730 mmHg 85%
    20:00 -3°C° 0 mm 4 mps 729 mmHg 86%
    21:00 -4°C° 0 mm 3 mps 729 mmHg 87%
    22:00 -4°C° 0 mm 3 mps 729 mmHg 87%
    23:00 -4°C° 0 mm 3 mps 728 mmHg 87%
    Show more